Time,TemperatureF,DewpointF,PressureIn,WindDirection,WindDirectionDegrees,WindSpeedMPH,WindSpeedGustMPH,Humidity,HourlyPrecipIn,Conditions,Clouds,dailyrainin,SoftwareType,DateUTC
2013-03-22 00:03:00,23.6,10.2,30.01,NE,35,0.0,0.0,56,0.00,,---,0.00,VWS V13.01,2013-03-22 06:03:00,
2013-03-22 00:08:00,23.5,9.7,30.01,NE,35,0.0,1.0,55,0.00,,---,0.00,VWS V13.01,2013-03-22 06:08:00,
2013-03-22 00:14:00,23.3,9.5,30.01,NE,35,0.0,0.0,55,0.00,,---,0.00,VWS V13.01,2013-03-22 06:14:00,
2013-03-22 00:19:00,23.3,9.5,30.00,NE,35,0.0,0.0,55,0.00,,---,0.00,VWS V13.01,2013-03-22 06:19:00,
2013-03-22 00:24:00,23.3,10.3,30.00,NE,35,0.0,0.0,57,0.00,,---,0.00,VWS V13.01,2013-03-22 06:24:00,
2013-03-22 00:29:00,23.3,9.9,30.00,NE,35,0.0,0.0,56,0.00,,---,0.00,VWS V13.01,2013-03-22 06:29:00,
2013-03-22 00:35:00,23.3,9.5,30.00,NE,52,0.0,2.0,55,0.00,,---,0.00,VWS V13.01,2013-03-22 06:35:00,
2013-03-22 00:40:00,23.3,9.5,30.00,NE,52,0.0,1.0,55,0.00,,---,0.00,VWS V13.01,2013-03-22 06:40:00,
2013-03-22 00:45:00,23.5,9.7,30.00,NNE,19,0.0,3.0,55,0.00,,---,0.00,VWS V13.01,2013-03-22 06:45:00,
2013-03-22 00:50:00,23.5,9.7,30.00,ENE,67,1.0,2.0,55,0.00,,---,0.00,VWS V13.01,2013-03-22 06:50:00,
2013-03-22 00:56:00,23.5,9.3,30.00,NNE,21,0.0,2.0,54,0.00,,---,0.00,VWS V13.01,2013-03-22 06:56:00,
2013-03-22 01:01:00,23.6,9.0,30.00,NE,44,0.0,3.0,53,0.00,,---,0.00,VWS V13.01,2013-03-22 07:01:00,
2013-03-22 01:06:00,23.8,9.2,30.00,NE,53,0.0,3.0,53,0.00,,---,0.00,VWS V13.01,2013-03-22 07:06:00,
2013-03-22 01:12:00,23.8,9.6,30.00,NE,46,0.0,0.0,54,0.00,,---,0.00,VWS V13.01,2013-03-22 07:12:00,
2013-03-22 01:17:00,23.9,9.3,29.99,North,10,0.0,0.0,53,0.00,,---,0.00,VWS V13.01,2013-03-22 07:17:00,
2013-03-22 01:22:00,23.9,8.9,29.99,North,10,0.0,0.0,52,0.00,,---,0.00,VWS V13.01,2013-03-22 07:22:00,
2013-03-22 01:28:00,23.9,8.9,29.99,North,10,0.0,0.0,52,0.00,,---,0.00,VWS V13.01,2013-03-22 07:28:00,
2013-03-22 01:33:00,23.8,8.8,29.99,NNW,327,0.0,2.0,52,0.00,,---,0.00,VWS V13.01,2013-03-22 07:33:00,
2013-03-22 01:38:00,23.8,9.6,29.99,North,9,0.0,0.0,54,0.00,,---,0.00,VWS V13.01,2013-03-22 07:38:00,
2013-03-22 01:43:00,23.8,9.6,29.99,NE,42,0.0,2.0,54,0.00,,---,0.00,VWS V13.01,2013-03-22 07:43:00,
2013-03-22 01:48:00,23.6,10.2,29.99,NE,42,0.0,0.0,56,0.00,,---,0.00,VWS V13.01,2013-03-22 07:48:00,
2013-03-22 01:53:00,23.5,10.5,29.99,NE,42,0.0,1.0,57,0.00,,---,0.00,VWS V13.01,2013-03-22 07:53:00,
2013-03-22 01:58:00,23.3,10.3,29.99,NE,42,0.0,0.0,57,0.00,,---,0.00,VWS V13.01,2013-03-22 07:58:00,
2013-03-22 02:03:00,23.2,9.4,29.99,NNW,328,0.0,2.0,55,0.00,,---,0.00,VWS V13.01,2013-03-22 08:03:00,
2013-03-22 02:09:00,23.2,10.2,29.99,NNW,329,0.0,0.0,57,0.00,,---,0.00,VWS V13.01,2013-03-22 08:09:00,
2013-03-22 02:14:00,23.0,9.7,29.99,NNW,333,0.0,0.0,56,0.00,,---,0.00,VWS V13.01,2013-03-22 08:14:00,
2013-03-22 02:19:00,23.0,10.4,29.99,NNW,333,0.0,0.0,58,0.00,,---,0.00,VWS V13.01,2013-03-22 08:19:00,
2013-03-22 02:24:00,23.0,10.4,29.99,NNW,333,0.0,0.0,58,0.00,,---,0.00,VWS V13.01,2013-03-22 08:24:00,
2013-03-22 02:29:00,23.0,9.2,29.99,NNE,17,0.0,0.0,55,0.00,,---,0.00,VWS V13.01,2013-03-22 08:29:00,
2013-03-22 02:34:00,23.2,9.4,29.99,NNE,17,0.0,0.0,55,0.00,,---,0.00,VWS V13.01,2013-03-22 08:34:00,
2013-03-22 02:39:00,23.2,9.0,29.99,NNW,341,0.0,1.0,54,0.00,,---,0.00,VWS V13.01,2013-03-22 08:39:00,
2013-03-22 02:45:00,23.3,9.5,29.99,NNW,341,0.0,1.0,55,0.00,,---,0.00,VWS V13.01,2013-03-22 08:45:00,
2013-03-22 02:50:00,23.5,9.7,29.99,NNW,341,1.0,1.0,55,0.00,,---,0.00,VWS V13.01,2013-03-22 08:50:00,
2013-03-22 02:55:00,23.3,9.5,29.99,NNW,341,0.0,0.0,55,0.00,,---,0.00,VWS V13.01,2013-03-22 08:55:00,
2013-03-22 03:00:00,22.9,10.0,29.99,NNW,341,0.0,0.0,57,0.00,,---,0.00,VWS V13.01,2013-03-22 09:00:00,
2013-03-22 03:06:00,22.5,9.6,29.99,NNW,342,0.0,0.0,57,0.00,,---,0.00,VWS V13.01,2013-03-22 09:06:00,
2013-03-22 03:11:00,22.5,9.6,29.99,NNW,342,0.0,0.0,57,0.00,,---,0.00,VWS V13.01,2013-03-22 09:11:00,
2013-03-22 03:16:00,22.4,9.5,30.01,NNW,342,0.0,0.0,57,0.00,,---,0.00,VWS V13.01,2013-03-22 09:16:00,
2013-03-22 03:21:00,22.4,10.3,30.01,NNW,342,0.0,0.0,59,0.00,,---,0.00,VWS V13.01,2013-03-22 09:21:00,
2013-03-22 03:26:00,22.4,10.3,30.01,NNW,342,0.0,0.0,59,0.00,,---,0.00,VWS V13.01,2013-03-22 09:26:00,
2013-03-22 03:31:00,22.4,9.9,30.01,NNW,342,0.0,0.0,58,0.00,,---,0.00,VWS V13.01,2013-03-22 09:31:00,
2013-03-22 03:36:00,22.4,9.9,30.01,North,351,0.0,2.0,58,0.00,,---,0.00,VWS V13.01,2013-03-22 09:36:00,
2013-03-22 03:42:00,22.5,10.4,30.01,North,351,0.0,0.0,59,0.00,,---,0.00,VWS V13.01,2013-03-22 09:42:00,
2013-03-22 03:47:00,22.5,10.4,30.01,North,351,0.0,0.0,59,0.00,,---,0.00,VWS V13.01,2013-03-22 09:47:00,
2013-03-22 03:52:00,22.5,10.4,30.01,East,89,0.0,0.0,59,0.00,,---,0.00,VWS V13.01,2013-03-22 09:52:00,
2013-03-22 03:57:00,22.5,10.0,30.01,NNW,329,0.0,0.0,58,0.00,,---,0.00,VWS V13.01,2013-03-22 09:57:00,
2013-03-22 04:02:00,22.5,10.0,30.00,NNW,329,0.0,0.0,58,0.00,,---,0.00,VWS V13.01,2013-03-22 10:02:00,
2013-03-22 04:07:00,22.5,10.0,30.00,NNE,30,0.0,2.0,58,0.00,,---,0.00,VWS V13.01,2013-03-22 10:07:00,
2013-03-22 04:13:00,22.5,9.6,30.00,NNE,30,0.0,0.0,57,0.00,,---,0.00,VWS V13.01,2013-03-22 10:13:00,
2013-03-22 04:18:00,22.5,10.0,30.00,NE,43,1.0,4.0,58,0.00,,---,0.00,VWS V13.01,2013-03-22 10:18:00,
2013-03-22 04:23:00,22.7,10.2,30.00,NW,323,0.0,3.0,58,0.00,,---,0.00,VWS V13.01,2013-03-22 10:23:00,
2013-03-22 04:28:00,22.7,9.8,30.00,East,80,0.0,1.0,57,0.00,,---,0.00,VWS V13.01,2013-03-22 10:28:00,
2013-03-22 04:34:00,22.9,9.6,29.99,ENE,57,0.0,2.0,56,0.00,,---,0.00,VWS V13.01,2013-03-22 10:34:00,
2013-03-22 04:39:00,23.0,9.7,29.99,NW,314,0.0,0.0,56,0.00,,---,0.00,VWS V13.01,2013-03-22 10:39:00,
2013-03-22 04:44:00,23.2,10.6,29.99,ENE,63,0.0,1.0,58,0.00,,---,0.00,VWS V13.01,2013-03-22 10:44:00,
2013-03-22 04:49:00,23.2,10.6,29.99,East,85,0.0,0.0,58,0.00,,---,0.00,VWS V13.01,2013-03-22 10:49:00,
2013-03-22 04:54:00,23.2,11.0,29.99,East,85,0.0,0.0,59,0.00,,---,0.00,VWS V13.01,2013-03-22 10:54:00,
2013-03-22 04:59:00,23.2,10.2,29.99,East,85,0.0,0.0,57,0.00,,---,0.00,VWS V13.01,2013-03-22 10:59:00,
2013-03-22 05:04:00,23.2,11.0,29.99,East,85,0.0,0.0,59,0.00,,---,0.00,VWS V13.01,2013-03-22 11:04:00,
2013-03-22 05:09:00,23.0,10.4,29.99,East,85,0.0,0.0,58,0.00,,---,0.00,VWS V13.01,2013-03-22 11:09:00,
2013-03-22 05:15:00,23.0,9.7,29.99,East,85,0.0,0.0,56,0.00,,---,0.00,VWS V13.01,2013-03-22 11:15:00,
2013-03-22 05:20:00,22.9,10.3,30.01,East,85,0.0,0.0,58,0.00,,---,0.00,VWS V13.01,2013-03-22 11:20:00,
2013-03-22 05:25:00,22.9,10.7,30.01,East,85,0.0,0.0,59,0.00,,---,0.00,VWS V13.01,2013-03-22 11:25:00,
2013-03-22 05:31:00,22.7,10.5,30.01,East,85,0.0,0.0,59,0.00,,---,0.00,VWS V13.01,2013-03-22 11:31:00,
2013-03-22 05:36:00,22.7,9.8,30.01,East,85,0.0,0.0,57,0.00,,---,0.00,VWS V13.01,2013-03-22 11:36:00,
2013-03-22 05:41:00,22.7,10.2,30.01,East,85,0.0,0.0,58,0.00,,---,0.00,VWS V13.01,2013-03-22 11:41:00,
2013-03-22 05:46:00,22.7,9.8,30.01,East,85,0.0,0.0,57,0.00,,---,0.00,VWS V13.01,2013-03-22 11:46:00,
2013-03-22 05:52:00,22.7,9.8,30.01,East,85,0.0,0.0,57,0.00,,---,0.00,VWS V13.01,2013-03-22 11:52:00,
2013-03-22 05:57:00,22.5,10.4,30.01,East,85,0.0,0.0,59,0.00,,---,0.00,VWS V13.01,2013-03-22 11:57:00,
2013-03-22 06:02:00,22.5,10.7,30.01,East,85,0.0,0.0,60,0.00,,---,0.00,VWS V13.01,2013-03-22 12:02:00,
2013-03-22 06:07:00,22.5,10.7,30.01,East,85,0.0,0.0,60,0.00,,---,0.00,VWS V13.01,2013-03-22 12:07:00,
2013-03-22 06:12:00,22.4,9.9,30.01,East,85,0.0,0.0,58,0.00,,---,0.00,VWS V13.01,2013-03-22 12:12:00,
2013-03-22 06:18:00,22.1,10.0,30.02,East,85,0.0,0.0,59,0.00,,---,0.00,VWS V13.01,2013-03-22 12:18:00,
2013-03-22 06:23:00,22.1,10.0,30.02,ENE,68,0.0,0.0,59,0.00,,---,0.00,VWS V13.01,2013-03-22 12:23:00,
2013-03-22 06:28:00,21.9,10.5,30.02,ENE,68,0.0,0.0,61,0.00,,---,0.00,VWS V13.01,2013-03-22 12:28:00,
2013-03-22 06:33:00,21.8,10.4,30.03,ENE,68,0.0,0.0,61,0.00,,---,0.00,VWS V13.01,2013-03-22 12:33:00,
2013-03-22 06:38:00,21.4,10.4,30.03,ENE,68,0.0,0.0,62,0.00,,---,0.00,VWS V13.01,2013-03-22 12:38:00,
2013-03-22 06:44:00,21.0,10.4,30.03,ENE,68,0.0,0.0,63,0.00,,---,0.00,VWS V13.01,2013-03-22 12:44:00,
2013-03-22 06:49:00,20.8,10.2,30.04,ENE,68,0.0,0.0,63,0.00,,---,0.00,VWS V13.01,2013-03-22 12:49:00,
2013-03-22 06:54:00,20.6,10.4,30.04,ENE,68,0.0,0.0,64,0.00,,---,0.00,VWS V13.01,2013-03-22 12:54:00,
2013-03-22 06:59:00,20.3,9.7,30.04,ENE,68,0.0,0.0,63,0.00,,---,0.00,VWS V13.01,2013-03-22 12:59:00,
2013-03-22 07:04:00,20.2,9.6,30.04,ENE,68,0.0,0.0,63,0.00,,---,0.00,VWS V13.01,2013-03-22 13:04:00,
2013-03-22 07:10:00,20.2,10.0,30.04,ENE,68,0.0,0.0,64,0.00,,---,0.00,VWS V13.01,2013-03-22 13:10:00,
2013-03-22 07:15:00,20.2,10.3,30.05,ENE,68,0.0,1.0,65,0.00,,---,0.00,VWS V13.01,2013-03-22 13:15:00,
2013-03-22 07:20:00,20.2,10.3,30.05,ENE,68,0.0,0.0,65,0.00,,---,0.00,VWS V13.01,2013-03-22 13:20:00,
2013-03-22 07:25:00,20.2,10.3,30.05,ENE,68,0.0,0.0,65,0.00,,---,0.00,VWS V13.01,2013-03-22 13:25:00,
2013-03-22 07:31:00,20.2,10.3,30.06,ENE,68,0.0,0.0,65,0.00,,---,0.00,VWS V13.01,2013-03-22 13:31:00,
2013-03-22 07:36:00,20.2,10.0,30.06,North,5,0.0,3.0,64,0.00,,---,0.00,VWS V13.01,2013-03-22 13:36:00,
2013-03-22 07:41:00,20.3,10.4,30.06,NNE,19,0.0,0.0,65,0.00,,---,0.00,VWS V13.01,2013-03-22 13:41:00,
2013-03-22 07:46:00,20.5,10.3,30.06,NNE,19,0.0,0.0,64,0.00,,---,0.00,VWS V13.01,2013-03-22 13:46:00,
2013-03-22 07:51:00,20.6,10.0,30.06,NNE,19,0.0,0.0,63,0.00,,---,0.00,VWS V13.01,2013-03-22 13:51:00,
2013-03-22 07:56:00,20.6,10.0,30.06,East,85,0.0,0.0,63,0.00,,---,0.00,VWS V13.01,2013-03-22 13:56:00,
2013-03-22 08:01:00,20.8,9.9,30.07,East,81,0.0,0.0,62,0.00,,---,0.00,VWS V13.01,2013-03-22 14:01:00,
2013-03-22 08:07:00,21.1,10.1,30.07,East,81,0.0,0.0,62,0.00,,---,0.00,VWS V13.01,2013-03-22 14:07:00,
2013-03-22 08:12:00,21.1,10.5,30.07,East,80,0.0,0.0,63,0.00,,---,0.00,VWS V13.01,2013-03-22 14:12:00,
2013-03-22 08:17:00,21.3,10.3,30.08,NNE,27,0.0,0.0,62,0.00,,---,0.00,VWS V13.01,2013-03-22 14:17:00,
2013-03-22 08:23:00,21.4,9.7,30.08,ESE,116,0.0,0.0,60,0.00,,---,0.00,VWS V13.01,2013-03-22 14:23:00,
2013-03-22 08:28:00,21.6,10.2,30.08,NE,39,0.0,1.0,61,0.00,,---,0.00,VWS V13.01,2013-03-22 14:28:00,
2013-03-22 08:33:00,21.8,9.7,30.07,NNW,327,0.0,2.0,59,0.00,,---,0.00,VWS V13.01,2013-03-22 14:33:00,
2013-03-22 08:38:00,22.1,10.0,30.07,NNW,345,0.0,0.0,59,0.00,,---,0.00,VWS V13.01,2013-03-22 14:38:00,
2013-03-22 08:43:00,22.4,10.6,30.07,ENE,76,0.0,1.0,60,0.00,,---,0.00,VWS V13.01,2013-03-22 14:43:00,
2013-03-22 08:48:00,22.7,10.2,30.08,ENE,76,0.0,0.0,58,0.00,,---,0.00,VWS V13.01,2013-03-22 14:48:00,
2013-03-22 08:54:00,23.0,10.1,30.08,ENE,75,0.0,2.0,57,0.00,,---,0.00,VWS V13.01,2013-03-22 14:54:00,
2013-03-22 08:59:00,23.5,10.1,30.08,East,92,0.0,2.0,56,0.00,,---,0.00,VWS V13.01,2013-03-22 14:59:00,
2013-03-22 09:04:00,23.8,10.0,30.07,NNE,15,0.0,4.0,55,0.00,,---,0.00,VWS V13.01,2013-03-22 15:04:00,
2013-03-22 09:10:00,24.1,10.3,30.07,WSW,249,0.0,4.0,55,0.00,,---,0.00,VWS V13.01,2013-03-22 15:10:00,
2013-03-22 09:15:00,24.2,11.2,30.07,WSW,257,2.0,3.0,57,0.00,,---,0.00,VWS V13.01,2013-03-22 15:15:00,
2013-03-22 09:20:00,24.4,11.4,30.09,NE,46,0.0,3.0,57,0.00,,---,0.00,VWS V13.01,2013-03-22 15:20:00,
2013-03-22 09:25:00,24.4,11.8,30.09,WSW,247,0.0,4.0,58,0.00,,---,0.00,VWS V13.01,2013-03-22 15:25:00,
2013-03-22 09:30:00,24.4,12.9,30.09,SE,143,3.0,6.0,61,0.00,,---,0.00,VWS V13.01,2013-03-22 15:30:00,
2013-03-22 09:35:00,24.4,13.6,30.09,ENE,78,0.0,4.0,63,0.00,,---,0.00,VWS V13.01,2013-03-22 15:35:00,
2013-03-22 09:40:00,24.1,14.4,30.09,NE,39,4.0,4.0,66,0.00,,---,0.00,VWS V13.01,2013-03-22 15:40:00,
2013-03-22 09:46:00,23.9,14.6,30.10,West,267,1.0,4.0,67,0.00,,---,0.00,VWS V13.01,2013-03-22 15:46:00,
2013-03-22 09:51:00,23.8,14.5,30.10,SW,235,2.0,4.0,67,0.00,,---,0.00,VWS V13.01,2013-03-22 15:51:00,
2013-03-22 09:56:00,23.6,14.9,30.10,SSW,210,0.0,6.0,69,0.00,,---,0.00,VWS V13.01,2013-03-22 15:56:00,
2013-03-22 10:01:00,23.6,15.3,30.10,NNE,29,0.0,4.0,70,0.00,,---,0.00,VWS V13.01,2013-03-22 16:01:00,
2013-03-22 10:06:00,23.8,15.5,30.10,West,259,2.0,3.0,70,0.00,,---,0.00,VWS V13.01,2013-03-22 16:06:00,
2013-03-22 10:11:00,23.8,14.1,30.10,SSW,210,3.0,5.0,66,0.00,,---,0.00,VWS V13.01,2013-03-22 16:11:00,
2013-03-22 10:17:00,23.9,13.9,30.12,West,277,0.0,0.0,65,0.00,,---,0.00,VWS V13.01,2013-03-22 16:17:00,
2013-03-22 10:22:00,24.2,12.7,30.12,NNE,27,0.0,4.0,61,0.00,,---,0.00,VWS V13.01,2013-03-22 16:22:00,
2013-03-22 10:27:00,24.1,13.3,30.12,SSW,198,2.0,3.0,63,0.00,,---,0.00,VWS V13.01,2013-03-22 16:27:00,
2013-03-22 10:32:00,23.9,12.8,30.12,WSW,239,0.0,4.0,62,0.00,,---,0.00,VWS V13.01,2013-03-22 16:32:00,
2013-03-22 10:38:00,23.9,13.1,30.12,WSW,253,4.0,4.0,63,0.00,,---,0.00,VWS V13.01,2013-03-22 16:38:00,
2013-03-22 10:43:00,23.8,12.7,30.12,East,90,1.0,7.0,62,0.00,,---,0.00,VWS V13.01,2013-03-22 16:43:00,
2013-03-22 10:49:00,23.9,12.4,30.12,West,266,5.0,7.0,61,0.00,,---,0.00,VWS V13.01,2013-03-22 16:49:00,
2013-03-22 10:54:00,23.6,13.2,30.12,SW,218,3.0,4.0,64,0.00,,---,0.00,VWS V13.01,2013-03-22 16:54:00,
2013-03-22 10:59:00,23.6,13.2,30.12,NNW,335,2.0,3.0,64,0.00,,---,0.00,VWS V13.01,2013-03-22 16:59:00,
2013-03-22 11:04:00,23.8,13.1,30.12,SW,227,0.0,4.0,63,0.00,,---,0.00,VWS V13.01,2013-03-22 17:04:00,
2013-03-22 11:10:00,23.8,12.7,30.12,SSE,156,0.0,7.0,62,0.00,,---,0.00,VWS V13.01,2013-03-22 17:10:00,
2013-03-22 11:15:00,24.2,13.4,30.12,WSW,238,4.0,4.0,63,0.00,,---,0.00,VWS V13.01,2013-03-22 17:15:00,
2013-03-22 11:20:00,24.4,12.1,30.12,SW,236,0.0,3.0,59,0.00,,---,0.00,VWS V13.01,2013-03-22 17:20:00,
2013-03-22 11:26:00,24.7,12.4,30.12,WSW,254,2.0,9.0,59,0.00,,---,0.00,VWS V13.01,2013-03-22 17:26:00,
2013-03-22 11:31:00,25.0,11.5,30.13,NNE,15,0.0,5.0,56,0.00,,---,0.00,VWS V13.01,2013-03-22 17:31:00,
2013-03-22 11:36:00,25.1,10.0,30.13,NE,55,0.0,7.0,52,0.00,,---,0.00,VWS V13.01,2013-03-22 17:36:00,
2013-03-22 11:41:00,25.3,11.0,30.13,SW,232,4.0,4.0,54,0.00,,---,0.00,VWS V13.01,2013-03-22 17:41:00,
2013-03-22 11:46:00,25.1,11.2,30.13,SSW,205,0.0,2.0,55,0.00,,---,0.00,VWS V13.01,2013-03-22 17:46:00,
2013-03-22 11:51:00,24.7,11.6,30.13,WSW,254,4.0,5.0,57,0.00,,---,0.00,VWS V13.01,2013-03-22 17:51:00,
2013-03-22 11:57:00,24.5,11.5,30.13,WSW,248,4.0,5.0,57,0.00,,---,0.00,VWS V13.01,2013-03-22 17:57:00,
2013-03-22 12:02:00,24.4,10.6,30.14,North,9,0.0,3.0,55,0.00,,---,0.00,VWS V13.01,2013-03-22 18:02:00,
2013-03-22 12:07:00,25.0,12.7,30.14,WSW,240,3.0,6.0,59,0.00,,---,0.00,VWS V13.01,2013-03-22 18:07:00,
2013-03-22 12:12:00,25.4,11.5,30.14,North,360,1.0,9.0,55,0.00,,---,0.00,VWS V13.01,2013-03-22 18:12:00,
2013-03-22 12:17:00,25.7,12.6,30.12,NNE,24,0.0,3.0,57,0.00,,---,0.00,VWS V13.01,2013-03-22 18:17:00,
2013-03-22 12:23:00,25.8,11.9,30.12,NE,47,0.0,4.0,55,0.00,,---,0.00,VWS V13.01,2013-03-22 18:23:00,
2013-03-22 12:28:00,25.6,12.5,30.12,SW,236,2.0,7.0,57,0.00,,---,0.00,VWS V13.01,2013-03-22 18:28:00,
2013-03-22 12:33:00,25.4,11.5,30.14,WSW,246,1.0,7.0,55,0.00,,---,0.00,VWS V13.01,2013-03-22 18:33:00,
2013-03-22 12:38:00,25.4,11.5,30.14,NNE,16,0.0,7.0,55,0.00,,---,0.00,VWS V13.01,2013-03-22 18:38:00,
2013-03-22 12:44:00,25.3,11.0,30.14,West,263,0.0,6.0,54,0.00,,---,0.00,VWS V13.01,2013-03-22 18:44:00,
2013-03-22 12:49:00,25.0,11.1,30.14,NW,325,2.0,6.0,55,0.00,,---,0.00,VWS V13.01,2013-03-22 18:49:00,
2013-03-22 12:54:00,25.0,11.1,30.14,WSW,238,2.0,6.0,55,0.00,,---,0.00,VWS V13.01,2013-03-22 18:54:00,
2013-03-22 13:00:00,25.0,9.9,30.14,SW,230,2.0,7.0,52,0.00,,---,0.00,VWS V13.01,2013-03-22 19:00:00,
2013-03-22 13:05:00,25.1,9.5,30.14,SW,223,0.0,4.0,51,0.00,,---,0.00,VWS V13.01,2013-03-22 19:05:00,
2013-03-22 13:10:00,25.4,9.4,30.14,West,268,4.0,4.0,50,0.00,,---,0.00,VWS V13.01,2013-03-22 19:10:00,
2013-03-22 13:15:00,25.6,10.0,30.14,West,271,0.0,5.0,51,0.00,,---,0.00,VWS V13.01,2013-03-22 19:15:00,
2013-03-22 13:20:00,26.0,9.5,30.14,SSW,197,0.0,4.0,49,0.00,,---,0.00,VWS V13.01,2013-03-22 19:20:00,
2013-03-22 13:25:00,26.4,10.7,30.14,WSW,250,2.0,10.0,51,0.00,,---,0.00,VWS V13.01,2013-03-22 19:25:00,
2013-03-22 13:30:00,27.3,10.7,30.13,WSW,248,2.0,5.0,49,0.00,,---,0.00,VWS V13.01,2013-03-22 19:30:00,
2013-03-22 13:36:00,27.5,9.4,30.13,North,5,0.0,11.0,46,0.00,,---,0.00,VWS V13.01,2013-03-22 19:36:00,
2013-03-22 13:41:00,27.6,9.1,30.13,West,260,0.0,6.0,45,0.00,,---,0.00,VWS V13.01,2013-03-22 19:41:00,
2013-03-22 13:46:00,27.6,10.0,30.14,WSW,257,0.0,0.0,47,0.00,,---,0.00,VWS V13.01,2013-03-22 19:46:00,
2013-03-22 13:51:00,28.4,9.8,30.14,WSW,237,1.0,2.0,45,0.00,,---,0.00,VWS V13.01,2013-03-22 19:51:00,
2013-03-22 13:56:00,27.9,9.8,30.14,ENE,69,2.0,2.0,46,0.00,,---,0.00,VWS V13.01,2013-03-22 19:56:00,
2013-03-22 14:02:00,27.5,9.9,30.14,SSE,154,0.0,6.0,47,0.00,,---,0.00,VWS V13.01,2013-03-22 20:02:00,
2013-03-22 14:07:00,27.2,9.6,30.14,WNW,295,0.0,0.0,47,0.00,,---,0.00,VWS V13.01,2013-03-22 20:07:00,
2013-03-22 14:12:00,27.5,10.4,30.14,NE,46,0.0,1.0,48,0.00,,---,0.00,VWS V13.01,2013-03-22 20:12:00,
2013-03-22 14:18:00,28.2,11.0,30.13,SSE,158,4.0,9.0,48,0.00,,---,0.00,VWS V13.01,2013-03-22 20:18:00,
2013-03-22 14:23:00,27.8,10.7,30.13,West,279,0.0,3.0,48,0.00,,---,0.00,VWS V13.01,2013-03-22 20:23:00,
2013-03-22 14:28:00,28.1,10.9,30.13,WNW,298,0.0,7.0,48,0.00,,---,0.00,VWS V13.01,2013-03-22 20:28:00,
2013-03-22 14:34:00,28.1,11.4,30.13,WSW,244,2.0,8.0,49,0.00,,---,0.00,VWS V13.01,2013-03-22 20:34:00,
2013-03-22 14:39:00,27.6,11.4,30.13,ESE,109,0.0,6.0,50,0.00,,---,0.00,VWS V13.01,2013-03-22 20:39:00,
2013-03-22 14:44:00,27.2,11.5,30.13,West,277,6.0,7.0,51,0.00,,---,0.00,VWS V13.01,2013-03-22 20:44:00,
2013-03-22 14:49:00,26.6,10.9,30.14,NNW,340,0.0,5.0,51,0.00,,---,0.00,VWS V13.01,2013-03-22 20:49:00,
2013-03-22 14:54:00,26.9,10.8,30.14,West,279,0.0,4.0,50,0.00,,---,0.00,VWS V13.01,2013-03-22 20:54:00,
2013-03-22 14:59:00,26.9,10.8,30.14,SW,231,3.0,4.0,50,0.00,,---,0.00,VWS V13.01,2013-03-22 20:59:00,
2013-03-22 15:05:00,26.6,10.0,30.14,WSW,240,3.0,6.0,49,0.00,,---,0.00,VWS V13.01,2013-03-22 21:05:00,
2013-03-22 15:10:00,27.2,10.6,30.14,NNE,28,1.0,4.0,49,0.00,,---,0.00,VWS V13.01,2013-03-22 21:10:00,
2013-03-22 15:15:00,28.2,11.0,30.14,ENE,64,0.0,5.0,48,0.00,,---,0.00,VWS V13.01,2013-03-22 21:15:00,
2013-03-22 15:21:00,29.4,8.6,30.14,NE,34,1.0,6.0,41,0.00,,---,0.00,VWS V13.01,2013-03-22 21:21:00,
2013-03-22 15:26:00,30.7,9.2,30.14,WNW,294,2.0,4.0,40,0.00,,---,0.00,VWS V13.01,2013-03-22 21:26:00,
2013-03-22 15:31:00,31.3,9.2,30.12,NE,47,0.0,5.0,39,0.00,,---,0.00,VWS V13.01,2013-03-22 21:31:00,
2013-03-22 15:36:00,30.7,8.7,30.12,East,80,2.0,6.0,39,0.00,,---,0.00,VWS V13.01,2013-03-22 21:36:00,
2013-03-22 15:41:00,29.8,10.1,30.12,WNW,282,0.0,0.0,43,0.00,,---,0.00,VWS V13.01,2013-03-22 21:41:00,
2013-03-22 15:47:00,29.1,8.4,30.13,West,281,0.0,6.0,41,0.00,,---,0.00,VWS V13.01,2013-03-22 21:47:00,
2013-03-22 15:52:00,28.4,8.8,30.13,SW,216,1.0,6.0,43,0.00,,---,0.00,VWS V13.01,2013-03-22 21:52:00,
2013-03-22 15:58:00,27.9,7.8,30.13,SW,230,10.0,10.0,42,0.00,,---,0.00,VWS V13.01,2013-03-22 21:58:00,
2013-03-22 16:03:00,27.3,8.3,30.14,SW,236,2.0,4.0,44,0.00,,---,0.00,VWS V13.01,2013-03-22 22:03:00,
2013-03-22 16:08:00,27.3,7.8,30.14,SW,236,4.0,8.0,43,0.00,,---,0.00,VWS V13.01,2013-03-22 22:08:00,
2013-03-22 16:14:00,27.2,6.6,30.14,WSW,248,7.0,10.0,41,0.00,,---,0.00,VWS V13.01,2013-03-22 22:14:00,
2013-03-22 16:19:00,27.0,8.0,30.15,NW,308,1.0,4.0,44,0.00,,---,0.00,VWS V13.01,2013-03-22 22:19:00,
2013-03-22 16:24:00,27.2,7.7,30.15,SE,144,0.0,7.0,43,0.00,,---,0.00,VWS V13.01,2013-03-22 22:24:00,
2013-03-22 16:30:00,27.2,7.7,30.15,West,274,0.0,9.0,43,0.00,,---,0.00,VWS V13.01,2013-03-22 22:30:00,
2013-03-22 16:35:00,26.7,7.2,30.16,WSW,250,2.0,6.0,43,0.00,,---,0.00,VWS V13.01,2013-03-22 22:35:00,
2013-03-22 16:40:00,26.6,7.6,30.16,SW,227,2.0,7.0,44,0.00,,---,0.00,VWS V13.01,2013-03-22 22:40:00,
2013-03-22 16:45:00,26.9,7.9,30.16,West,280,3.0,4.0,44,0.00,,---,0.00,VWS V13.01,2013-03-22 22:45:00,
2013-03-22 16:51:00,26.7,7.2,30.16,WSW,238,0.0,7.0,43,0.00,,---,0.00,VWS V13.01,2013-03-22 22:51:00,
2013-03-22 16:56:00,26.4,7.9,30.16,SSW,194,4.0,10.0,45,0.00,,---,0.00,VWS V13.01,2013-03-22 22:56:00,
2013-03-22 17:01:00,26.1,8.2,30.18,SW,229,0.0,9.0,46,0.00,,---,0.00,VWS V13.01,2013-03-22 23:01:00,
2013-03-22 17:06:00,25.8,7.9,30.18,West,266,0.0,7.0,46,0.00,,---,0.00,VWS V13.01,2013-03-22 23:06:00,
2013-03-22 17:11:00,25.8,8.4,30.18,WSW,240,0.0,7.0,47,0.00,,---,0.00,VWS V13.01,2013-03-22 23:11:00,
2013-03-22 17:16:00,26.0,7.1,30.19,West,281,0.0,12.0,44,0.00,,---,0.00,VWS V13.01,2013-03-22 23:16:00,
2013-03-22 17:22:00,25.7,8.3,30.19,WNW,302,2.0,5.0,47,0.00,,---,0.00,VWS V13.01,2013-03-22 23:22:00,
2013-03-22 17:27:00,25.4,9.4,30.19,WNW,283,0.0,0.0,50,0.00,,---,0.00,VWS V13.01,2013-03-22 23:27:00,
2013-03-22 17:32:00,25.3,7.9,30.19,WNW,299,4.0,4.0,47,0.00,,---,0.00,VWS V13.01,2013-03-22 23:32:00,
2013-03-22 17:37:00,25.0,8.6,30.19,WSW,245,2.0,3.0,49,0.00,,---,0.00,VWS V13.01,2013-03-22 23:37:00,
2013-03-22 17:42:00,24.8,7.4,30.19,WNW,288,4.0,10.0,47,0.00,,---,0.00,VWS V13.01,2013-03-22 23:42:00,
2013-03-22 17:48:00,24.7,7.8,30.20,SW,219,2.0,5.0,48,0.00,,---,0.00,VWS V13.01,2013-03-22 23:48:00,
2013-03-22 17:53:00,24.7,8.3,30.20,SSW,197,0.0,5.0,49,0.00,,---,0.00,VWS V13.01,2013-03-22 23:53:00,
2013-03-22 17:58:00,24.5,8.5,30.20,South,190,0.0,3.0,50,0.00,,---,0.00,VWS V13.01,2013-03-22 23:58:00,
2013-03-22 18:03:00,24.7,8.3,30.21,West,268,0.0,2.0,49,0.00,,---,0.00,VWS V13.01,2013-03-23 00:03:00,
2013-03-22 18:08:00,24.7,7.8,30.21,West,269,3.0,6.0,48,0.00,,---,0.00,VWS V13.01,2013-03-23 00:08:00,
2013-03-22 18:14:00,24.7,8.3,30.21,SSE,163,0.0,4.0,49,0.00,,---,0.00,VWS V13.01,2013-03-23 00:14:00,
2013-03-22 18:20:00,24.5,9.0,30.23,WSW,257,3.0,5.0,51,0.00,,---,0.00,VWS V13.01,2013-03-23 00:20:00,
2013-03-22 18:25:00,24.4,9.7,30.23,WSW,240,0.0,5.0,53,0.00,,---,0.00,VWS V13.01,2013-03-23 00:25:00,
2013-03-22 18:30:00,24.1,9.9,30.23,West,259,1.0,5.0,54,0.00,,---,0.00,VWS V13.01,2013-03-23 00:30:00,
2013-03-22 18:36:00,23.9,8.4,30.23,WSW,247,1.0,6.0,51,0.00,,---,0.00,VWS V13.01,2013-03-23 00:36:00,
2013-03-22 18:41:00,23.8,8.3,30.23,WNW,288,0.0,7.0,51,0.00,,---,0.00,VWS V13.01,2013-03-23 00:41:00,
2013-03-22 18:46:00,23.5,8.5,30.24,SW,230,0.0,3.0,52,0.00,,---,0.00,VWS V13.01,2013-03-23 00:46:00,
2013-03-22 18:51:00,23.3,7.9,30.24,WSW,240,0.0,5.0,51,0.00,,---,0.00,VWS V13.01,2013-03-23 00:51:00,
2013-03-22 18:56:00,23.3,8.3,30.24,WSW,246,4.0,5.0,52,0.00,,---,0.00,VWS V13.01,2013-03-23 00:56:00,
2013-03-22 19:01:00,23.3,8.7,30.26,West,265,0.0,4.0,53,0.00,,---,0.00,VWS V13.01,2013-03-23 01:01:00,
2013-03-22 19:06:00,23.2,8.2,30.26,SW,234,0.0,5.0,52,0.00,,---,0.00,VWS V13.01,2013-03-23 01:06:00,
2013-03-22 19:11:00,23.0,8.4,30.26,SSW,207,4.0,5.0,53,0.00,,---,0.00,VWS V13.01,2013-03-23 01:11:00,
2013-03-22 19:17:00,23.0,8.4,30.25,SSE,162,0.0,0.0,53,0.00,,---,0.00,VWS V13.01,2013-03-23 01:17:00,
2013-03-22 19:22:00,22.7,9.0,30.25,West,261,0.0,0.0,55,0.00,,---,0.00,VWS V13.01,2013-03-23 01:22:00,
2013-03-22 19:27:00,22.4,8.7,30.25,NNW,339,0.0,4.0,55,0.00,,---,0.00,VWS V13.01,2013-03-23 01:27:00,
2013-03-22 19:32:00,21.9,8.2,30.27,West,264,1.0,3.0,55,0.00,,---,0.00,VWS V13.01,2013-03-23 01:32:00,
2013-03-22 19:37:00,21.6,7.9,30.27,WSW,244,0.0,5.0,55,0.00,,---,0.00,VWS V13.01,2013-03-23 01:37:00,
2013-03-22 19:43:00,21.3,8.1,30.27,SW,234,0.0,3.0,56,0.00,,---,0.00,VWS V13.01,2013-03-23 01:43:00,
2013-03-22 19:48:00,21.0,7.8,30.28,WSW,258,1.0,2.0,56,0.00,,---,0.00,VWS V13.01,2013-03-23 01:48:00,
2013-03-22 19:53:00,20.8,8.0,30.28,WNW,283,4.0,4.0,57,0.00,,---,0.00,VWS V13.01,2013-03-23 01:53:00,
2013-03-22 19:58:00,20.6,8.2,30.28,SSW,207,0.0,3.0,58,0.00,,---,0.00,VWS V13.01,2013-03-23 01:58:00,
2013-03-22 20:03:00,20.6,8.2,30.28,SSW,207,0.0,2.0,58,0.00,,---,0.00,VWS V13.01,2013-03-23 02:03:00,
2013-03-22 20:09:00,20.5,8.1,30.28,West,267,0.0,5.0,58,0.00,,---,0.00,VWS V13.01,2013-03-23 02:09:00,
2013-03-22 20:14:00,20.5,8.1,30.28,NE,40,0.0,0.0,58,0.00,,---,0.00,VWS V13.01,2013-03-23 02:14:00,
2013-03-22 20:19:00,20.3,8.3,30.28,NE,40,0.0,0.0,59,0.00,,---,0.00,VWS V13.01,2013-03-23 02:19:00,
2013-03-22 20:24:00,20.3,8.3,30.28,WNW,291,0.0,2.0,59,0.00,,---,0.00,VWS V13.01,2013-03-23 02:24:00,
2013-03-22 20:30:00,20.2,8.9,30.28,WSW,242,0.0,3.0,61,0.00,,---,0.00,VWS V13.01,2013-03-23 02:30:00,
2013-03-22 20:35:00,20.2,8.9,30.28,SSW,198,0.0,2.0,61,0.00,,---,0.00,VWS V13.01,2013-03-23 02:35:00,
2013-03-22 20:40:00,20.2,8.9,30.28,West,259,0.0,2.0,61,0.00,,---,0.00,VWS V13.01,2013-03-23 02:40:00,
2013-03-22 20:45:00,20.2,8.6,30.29,NNE,19,0.0,2.0,60,0.00,,---,0.00,VWS V13.01,2013-03-23 02:45:00,
2013-03-22 20:50:00,20.2,8.9,30.29,NNW,335,0.0,2.0,61,0.00,,---,0.00,VWS V13.01,2013-03-23 02:50:00,
2013-03-22 20:56:00,20.2,8.9,30.29,NNE,25,0.0,4.0,61,0.00,,---,0.00,VWS V13.01,2013-03-23 02:56:00,
2013-03-22 21:01:00,20.2,9.3,30.30,West,275,0.0,4.0,62,0.00,,---,0.00,VWS V13.01,2013-03-23 03:01:00,
2013-03-22 21:06:00,20.0,9.1,30.30,NW,320,1.0,2.0,62,0.00,,---,0.00,VWS V13.01,2013-03-23 03:06:00,
2013-03-22 21:11:00,19.9,9.7,30.30,NNE,16,0.0,0.0,64,0.00,,---,0.00,VWS V13.01,2013-03-23 03:11:00,
2013-03-22 21:16:00,19.9,10.1,30.31,WSW,257,0.0,0.0,65,0.00,,---,0.00,VWS V13.01,2013-03-23 03:16:00,
2013-03-22 21:21:00,19.7,9.9,30.31,WSW,257,0.0,0.0,65,0.00,,---,0.00,VWS V13.01,2013-03-23 03:21:00,
2013-03-22 21:27:00,19.7,9.9,30.31,WSW,257,0.0,0.0,65,0.00,,---,0.00,VWS V13.01,2013-03-23 03:27:00,
2013-03-22 21:32:00,19.7,9.9,30.31,WSW,257,0.0,1.0,65,0.00,,---,0.00,VWS V13.01,2013-03-23 03:32:00,
2013-03-22 21:37:00,19.7,10.2,30.31,WNW,296,0.0,0.0,66,0.00,,---,0.00,VWS V13.01,2013-03-23 03:37:00,
2013-03-22 21:42:00,19.7,10.2,30.31,WNW,295,0.0,0.0,66,0.00,,---,0.00,VWS V13.01,2013-03-23 03:42:00,
2013-03-22 21:47:00,19.7,10.2,30.31,WNW,295,0.0,0.0,66,0.00,,---,0.00,VWS V13.01,2013-03-23 03:47:00,
2013-03-22 21:52:00,19.7,10.2,30.31,WNW,291,0.0,0.0,66,0.00,,---,0.00,VWS V13.01,2013-03-23 03:52:00,
2013-03-22 21:58:00,19.5,10.0,30.31,WNW,292,0.0,0.0,66,0.00,,---,0.00,VWS V13.01,2013-03-23 03:58:00,
2013-03-22 22:00:00,19.5,10.0,30.31,WNW,292,0.0,0.0,66,0.00,,---,0.00,VWS V13.01,2013-03-23 04:00:00,
2013-03-22 22:01:00,19.5,10.0,30.32,WNW,290,0.0,0.0,66,0.00,,---,0.00,VWS V13.01,2013-03-23 04:01:00,
2013-03-22 22:05:00,19.4,9.9,30.32,WNW,290,0.0,1.0,66,0.00,,---,0.00,VWS V13.01,2013-03-23 04:05:00,
2013-03-22 22:10:00,19.1,9.6,30.32,WNW,290,0.0,1.0,66,0.00,,---,0.00,VWS V13.01,2013-03-23 04:10:00,
2013-03-22 22:16:00,18.9,9.4,30.34,WNW,290,0.0,0.0,66,0.00,,---,0.00,VWS V13.01,2013-03-23 04:16:00,
2013-03-22 22:21:00,18.8,10.0,30.34,WNW,290,0.0,0.0,68,0.00,,---,0.00,VWS V13.01,2013-03-23 04:21:00,
2013-03-22 22:26:00,18.8,10.0,30.34,WNW,285,0.0,1.0,68,0.00,,---,0.00,VWS V13.01,2013-03-23 04:26:00,
2013-03-22 22:31:00,18.9,10.1,30.34,West,265,0.0,2.0,68,0.00,,---,0.00,VWS V13.01,2013-03-23 04:31:00,
2013-03-22 22:36:00,19.1,10.3,30.34,WSW,256,0.0,3.0,68,0.00,,---,0.00,VWS V13.01,2013-03-23 04:36:00,
2013-03-22 22:41:00,19.1,10.0,30.34,WNW,290,2.0,3.0,67,0.00,,---,0.00,VWS V13.01,2013-03-23 04:41:00,
2013-03-22 22:46:00,19.2,10.1,30.35,SSW,211,0.0,5.0,67,0.00,,---,0.00,VWS V13.01,2013-03-23 04:46:00,
2013-03-22 22:52:00,19.2,9.7,30.35,West,263,0.0,0.0,66,0.00,,---,0.00,VWS V13.01,2013-03-23 04:52:00,
2013-03-22 22:57:00,19.2,9.0,30.35,SSW,210,0.0,1.0,64,0.00,,---,0.00,VWS V13.01,2013-03-23 04:57:00,
2013-03-22 23:02:00,19.2,9.4,30.35,West,259,0.0,3.0,65,0.00,,---,0.00,VWS V13.01,2013-03-23 05:02:00,
2013-03-22 23:07:00,19.1,8.9,30.35,NNE,32,0.0,1.0,64,0.00,,---,0.00,VWS V13.01,2013-03-23 05:07:00,
2013-03-22 23:12:00,19.1,8.9,30.35,West,267,0.0,2.0,64,0.00,,---,0.00,VWS V13.01,2013-03-23 05:12:00,
2013-03-22 23:18:00,19.1,8.9,30.35,West,259,0.0,0.0,64,0.00,,---,0.00,VWS V13.01,2013-03-23 05:18:00,
2013-03-22 23:23:00,18.9,8.4,30.35,SE,134,0.0,1.0,63,0.00,,---,0.00,VWS V13.01,2013-03-23 05:23:00,
2013-03-22 23:28:00,18.9,8.4,30.35,West,273,0.0,2.0,63,0.00,,---,0.00,VWS V13.01,2013-03-23 05:28:00,
2013-03-22 23:33:00,18.8,8.3,30.35,WSW,244,0.0,2.0,63,0.00,,---,0.00,VWS V13.01,2013-03-23 05:33:00,
2013-03-22 23:38:00,18.6,8.1,30.35,West,271,0.0,4.0,63,0.00,,---,0.00,VWS V13.01,2013-03-23 05:38:00,
2013-03-22 23:43:00,18.4,7.9,30.35,SSW,209,0.0,2.0,63,0.00,,---,0.00,VWS V13.01,2013-03-23 05:43:00,
2013-03-22 23:48:00,18.3,7.8,30.36,SSW,209,1.0,1.0,63,0.00,,---,0.00,VWS V13.01,2013-03-23 05:48:00,
2013-03-22 23:54:00,18.1,7.6,30.36,SW,225,1.0,2.0,63,0.00,,---,0.00,VWS V13.01,2013-03-23 05:54:00,
2013-03-22 23:59:00,18.1,7.6,30.36,SW,232,2.0,2.0,63,0.00,,---,0.00,VWS V13.01,2013-03-23 05:59:00,